Location: Voyageurs National Park
(48.5020°N, 92.9292°W)
Time: 00:45:49
(UTC-05:00)

Amateur Radio Satellites - All Passes

Search period start: 23 May 2015 00:15
Search period end: 24 May 2015 00:15
Location: Voyageurs National Park, 48.5020°N, 92.9292°W

Satellite Date Start Highest point End Downlink Frequencies (MHz)
Time Altitude Azimuth
TIGRISAT 23 May 00:18:01 00:22:30 69° 287° (WNW) 00:26:49 435.000
SWISSCUBE 23 May 00:21:21 00:23:59 15° 57° (ENE) 00:26:46 437.505
50 SAT 23 May 00:24:51 00:27:17 15° 271° (W) 00:29:35 437.505
NANOSAT C BR1 23 May 00:32:21 00:36:41 84° 104° (ESE) 00:40:57 145.865
UNISAT 6 23 May 00:36:30 00:40:48 45° 290° (WNW) 00:44:57 437.425
QB50P2 23 May 00:36:50 00:41:10 85° 285° (WNW) 00:45:27 145.880/145.840
SPROUT 23 May 00:41:20 00:45:39 72° 258° (WSW) 00:50:01 437.525
POPSAT HIP 1 23 May 00:50:23 00:54:40 65° 287° (WNW) 00:58:54 437.405
ESTCUBE 1 23 May 00:55:16 00:58:12 16° 272° (W) 01:00:59 437.505/2401.250
DUCHIFAT 1 23 May 00:56:16 01:00:30 57° 288° (WNW) 01:04:41 145.980
CUSAT 1 23 May 00:58:35 01:06:39 86° 79° (ENE) 01:13:10 437.405
GONETS M04 23 May 01:04:12 01:13:02 70° 76° (ENE) 01:21:46
O/OREOS (USA 219) 23 May 01:06:25 01:09:15 17° 44° (NE) 01:12:12 437.305
ANTELSAT 23 May 01:20:29 01:23:44 19° 299° (WNW) 01:26:49 437.575/2403.000
PCSat 23 May 01:21:32 01:24:36 16° 106° (ESE) 01:27:53 145.827
TISAT 1 23 May 01:23:31 01:27:25 35° 264° (W) 01:31:21 437.305
KKS-1 23 May 01:33:17 01:35:16 13° 57° (ENE) 01:37:27 437.445
POLYITAN 1 23 May 01:34:55 01:38:29 25° 295° (WNW) 01:41:58 437.675
QB50P1 23 May 01:35:33 01:39:07 25° 295° (WNW) 01:42:34 145.935-145.965
DANDE 23 May 01:38:05 01:46:29 69° 264° (W) 01:53:29 436.750
ITUPSAT 1 23 May 01:38:06 01:42:47 60° 71° (ENE) 01:47:30 437.325
BUGSAT 1 23 May 01:40:50 01:44:37 30° 293° (WNW) 01:48:19 437.445
ISS 23 May 01:43:37 01:46:15 23° 142° (SE) 01:48:56 145.825
Cosmos 2499 23 May 01:47:39 01:53:23 26° 61° (ENE) 01:59:11 435.465 / 435.565
BEESAT 23 May 01:48:45 01:53:30 76° 73° (ENE) 01:58:17 436.000
SWISSCUBE 23 May 01:56:29 02:01:15 86° 257° (WSW) 02:06:03 437.505
TIGRISAT 23 May 01:57:39 01:58:26 10° 305° (NW) 01:59:01 435.000
Oscar 19 23 May 02:04:04 02:08:36 30° 94° (E) 02:13:10 437.125/150
NANOSAT C BR1 23 May 02:09:48 02:11:57 13° 301° (WNW) 02:13:56 145.865
ITAMSAT 1 23 May 02:10:22 02:11:30 11° 83° (E) 02:12:58 435.822/435.867
BEESAT 3 23 May 02:11:09 02:13:39 16° 27° (NNE) 02:16:13 437.485
QB50P2 23 May 02:14:43 02:16:25 12° 303° (WNW) 02:17:57 145.880/145.840
AIST 2 23 May 02:14:46 02:15:27 10° 13° (NNE) 02:16:11 435.215
Gurwin Techsat 1B 23 May 02:20:08 02:22:32 13° 84° (E) 02:25:12 435.225
CUSAT 1 23 May 02:42:33 02:48:14 22° 281° (W) 02:53:01 437.405
O/OREOS (USA 219) 23 May 02:44:50 02:49:20 82° 245° (WSW) 02:53:48 437.305
STARS 23 May 02:46:21 02:50:25 37° 68° (ENE) 02:54:34 437.465
BEESAT 2 23 May 02:53:17 02:56:38 23° 35° (NE) 02:59:58 435.950
GONETS M04 23 May 03:01:51 03:09:16 31° 278° (W) 03:16:24
PCSat 23 May 03:01:55 03:07:21 90° 94° (E) 03:12:50 145.827
KKS-1 23 May 03:06:47 03:11:17 87° 75° (ENE) 03:15:48 437.445
ITUPSAT 1 23 May 03:17:44 03:21:08 19° 270° (W) 03:24:25 437.325
ISS 23 May 03:19:09 03:22:25 81° 340° (NNW) 03:25:42 145.825
DANDE 23 May 03:23:22 03:28:11 16° 285° (WNW) 03:32:15 436.750
BEESAT 23 May 03:29:14 03:32:00 15° 273° (W) 03:34:33 436.000
AO-7 23 May 03:29:18 03:32:49 14° 81° (E) 03:36:56 29.400- 29.500
SWISSCUBE 23 May 03:38:17 03:39:57 11° 275° (W) 03:41:22 437.505
SO-50 23 May 03:40:12 03:41:12 11° 108° (ESE) 03:42:27 436.795
Cosmos 2499 23 May 03:40:13 03:47:19 69° 265° (W) 03:54:19 435.465 / 435.565
Oscar 19 23 May 03:43:13 03:48:06 42° 293° (WNW) 03:52:54 437.125/150
ITAMSAT 1 23 May 03:46:49 03:52:04 74° 104° (ESE) 03:57:17 435.822/435.867
HORYU 2 23 May 03:47:39 03:49:48 14° 87° (E) 03:52:09 437.375
BEESAT 3 23 May 03:48:19 03:52:25 65° 48° (NE) 03:56:27 437.485
AIST 2 23 May 03:51:50 03:55:28 26° 36° (NE) 03:59:05 435.215
Gurwin Techsat 1B 23 May 03:58:04 04:03:26 86° 103° (ESE) 04:08:47 435.225
MOZHAYETS 4 23 May 04:03:41 04:07:41 31° 67° (ENE) 04:11:45
JAS-2 23 May 04:23:07 04:27:35 28° 93° (E) 04:32:05 435.910
STARS 23 May 04:23:10 04:26:59 27° 266° (W) 04:30:46 437.465
BEESAT 2 23 May 04:30:59 04:35:05 63° 236° (SW) 04:39:06 435.950
KKS-1 23 May 04:46:58 04:48:39 12° 275° (W) 04:50:07 437.445
PCSat 23 May 04:47:10 04:51:31 23° 326° (NW) 04:55:50 145.827
VERMONT LUNAR 23 May 04:52:06 04:53:37 13° 162° (SSE) 04:55:11 437.305
Cosmos 2491 23 May 04:52:47 04:56:40 14° 43° (NE) 05:01:00 435.465 / 435.565
ISS 23 May 04:55:54 04:59:04 46° 360° (N) 05:02:15 145.825
SO-50 23 May 05:16:13 05:20:55 71° 125° (SE) 05:25:47 436.795
AO-7 23 May 05:19:19 05:27:37 63° 104° (ESE) 05:35:55 29.400- 29.500
HORYU 2 23 May 05:22:37 05:27:04 74° 287° (WNW) 05:31:28 437.375
BEESAT 3 23 May 05:27:18 05:29:59 17° 247° (WSW) 05:32:32 437.485
ITAMSAT 1 23 May 05:27:20 05:31:04 20° 302° (WNW) 05:34:41 435.822/435.867
AIST 2 23 May 05:30:10 05:34:20 55° 237° (WSW) 05:38:24 435.215
CUBESAT XI-V 23 May 05:30:26 05:33:58 23° 63° (ENE) 05:37:35 437.345
Cosmos 2499 23 May 05:36:14 05:39:09 12° 285° (WNW) 05:41:39 435.465 / 435.565
PRISM 23 May 05:37:41 05:39:27 13° 59° (ENE) 05:41:21 437.425
Gurwin Techsat 1B 23 May 05:39:18 05:42:48 18° 303° (WNW) 05:46:09 435.225
MOZHAYETS 4 23 May 05:40:42 05:44:53 34° 265° (W) 05:49:03
PHONESAT 2.4 23 May 06:04:35 06:06:33 15° 162° (SSE) 06:08:33 2401.200-2431.200
JAS-2 23 May 06:08:01 06:12:59 42° 293° (WNW) 06:17:49 435.910
M-CUBED/EXP-1 PRIME 23 May 06:08:58 06:12:22 24° 61° (ENE) 06:15:38 437.505
AUBIESAT-1 23 May 06:21:14 06:24:47 28° 62° (ENE) 06:28:09 437.475
VERMONT LUNAR 23 May 06:27:46 06:30:10 20° 179° (S) 06:32:35 437.305
ISS 23 May 06:32:26 06:35:44 80° 22° (NNE) 06:39:00 145.825
PCSat 23 May 06:35:23 06:37:02 11° 351° (N) 06:38:37 145.827
STRAND 1 23 May 06:38:45 06:43:36 46° 68° (ENE) 06:48:30 437.568
Cosmos 2491 23 May 06:47:46 06:56:21 52° 71° (ENE) 07:04:55 435.465 / 435.565
SO-50 23 May 06:57:49 07:01:57 27° 327° (NNW) 07:06:07 436.795
HORYU 2 23 May 07:01:39 07:02:59 11° 304° (NW) 07:04:06 437.375
CUTE-I 23 May 07:06:22 07:11:22 39° 96° (E) 07:16:23 437.470
CUBESAT XI-V 23 May 07:06:40 07:11:08 50° 261° (W) 07:15:38 437.345
PRISM 23 May 07:10:17 07:14:22 81° 256° (WSW) 07:18:29 437.425
AO-7 23 May 07:12:34 07:20:07 39° 305° (NW) 07:27:34 29.400- 29.500
Cubesat XI-IV 23 May 07:25:28 07:30:45 56° 100° (E) 07:36:02 437.490
PHONESAT 2.4 23 May 07:41:16 07:44:00 22° 179° (S) 07:46:45 2401.200-2431.200
M-CUBED/EXP-1 PRIME 23 May 07:43:00 07:47:06 40° 256° (WSW) 07:50:53 437.505
YUBILEINY 23 May 07:46:00 07:53:57 42° 87° (E) 08:02:00 435.215
AUBIESAT-1 23 May 07:55:35 07:59:30 34° 257° (WSW) 08:03:07 437.475
VERMONT LUNAR 23 May 08:04:54 08:06:45 14° 195° (SSW) 08:08:34 437.305
ISS 23 May 08:09:11 08:11:54 24° 218° (SW) 08:14:35 145.825
STRAND 1 23 May 08:18:43 08:23:03 27° 267° (W) 08:27:19 437.568
PCSat 23 May 08:20:20 08:22:55 13° 18° (NNE) 08:25:36 145.827
HO-68 23 May 08:35:23 08:40:02 19° 86° (E) 08:44:59 435.675
AIST 1 23 May 08:38:54 08:43:17 77° 79° (E) 08:47:41
SO-50 23 May 08:41:48 08:44:07 13° 351° (N) 08:46:25 436.795
Cosmos 2491 23 May 08:44:58 08:53:09 43° 273° (W) 09:01:10 435.465 / 435.565
CUTE-I 23 May 08:46:34 08:51:25 35° 295° (WNW) 08:56:14 437.470
SEEDS 23 May 08:57:42 08:59:45 14° 87° (E) 09:02:00 437.485
Cubesat XI-IV 23 May 09:06:10 09:10:34 26° 299° (WNW) 09:14:52 437.490
AO-7 23 May 09:07:19 09:10:41 13° 329° (NNW) 09:13:48 29.400- 29.500
BRITE-PL 23 May 09:09:52 09:15:33 60° 99° (E) 09:21:04 437.365/2234.400
ANTELSAT 23 May 09:11:46 09:13:38 13° 57° (ENE) 09:15:41 437.575/2403.000
COMPASS 1 23 May 09:17:19 09:20:06 18° 90° (E) 09:22:59 437.405
DOVE 4 23 May 09:18:30 09:23:11 32° 93° (E) 09:27:43 437.250
PHONESAT 2.4 23 May 09:19:15 09:21:29 16° 195° (SSW) 09:23:40 2401.200-2431.200
CINEMA 3 23 May 09:28:36 09:32:05 20° 88° (E) 09:35:37 145.822/145.860
AAUSAT CUBESAT 2 23 May 09:32:52 09:36:04 22° 92° (E) 09:39:20 437.432
GOMX 1 23 May 09:34:25 09:39:54 64° 100° (E) 09:45:10 467.674
YUBILEINY 23 May 09:42:09 09:50:42 52° 289° (WNW) 09:59:11 435.215
TIGRISAT 23 May 09:44:36 09:48:12 23° 63° (ENE) 09:51:53 435.000
Cosmos 2504 23 May 09:48:37 09:55:01 26° 83° (E) 10:01:20 435.465 / 435.565
Oscar 11 23 May 09:55:09 09:58:10 19° 90° (E) 10:01:16 145.826/435.025
NANOSAT C BR1 23 May 09:55:10 09:57:16 14° 59° (ENE) 09:59:31 145.865
RS-15 23 May 09:56:56 10:07:09 51° 114° (ESE) 10:17:45 29.354- 29.394
CANX-2 23 May 09:58:17 10:02:32 74° 101° (E) 10:06:44 2200.000
QB50P2 23 May 09:59:33 10:02:01 16° 60° (ENE) 10:04:39 145.880/145.840
UNISAT 6 23 May 10:02:29 10:06:38 33° 67° (ENE) 10:10:49 437.425
CUTE 1.7 + AOD 2 23 May 10:02:31 10:06:46 74° 102° (ESE) 10:10:57 437.475
PCSat 23 May 10:03:04 10:08:02 35° 42° (NE) 10:13:01 145.827
UWE-3 23 May 10:08:38 10:11:51 20° 89° (E) 10:15:06 435.000/436.395/437.385
POPSAT HIP 1 23 May 10:12:16 10:15:18 20° 62° (ENE) 10:18:27 437.405
DUCHIFAT 1 23 May 10:17:33 10:20:44 21° 63° (ENE) 10:24:01 145.980
AIST 1 23 May 10:18:36 10:20:23 12° 277° (W) 10:21:58
HO-68 23 May 10:21:42 10:28:55 87° 107° (ESE) 10:36:05 435.675
SO-50 23 May 10:23:55 10:26:39 15° 15° (NNE) 10:29:28 436.795
DELFI C3 23 May 10:28:16 10:31:45 28° 95° (E) 10:35:16 145.870
FUNcube-1 23 May 10:29:53 10:33:27 24° 92° (E) 10:37:00 145.935
SEEDS 23 May 10:31:55 10:36:05 66° 286° (WNW) 10:40:12 437.485
ANTELSAT 23 May 10:45:01 10:49:44 79° 74° (ENE) 10:54:25 437.575/2403.000
CUBEBUG 2 23 May 10:47:58 10:52:30 57° 100° (E) 10:56:51 437.445
BRITE-PL 23 May 10:48:57 10:53:41 27° 298° (WNW) 10:58:14 437.365/2234.400
COMPASS 1 23 May 10:52:05 10:56:07 50° 288° (WNW) 11:00:07 437.405
POLYITAN 1 23 May 10:55:05 10:59:14 48° 70° (ENE) 11:03:26 437.675
QB50P1 23 May 10:55:30 10:59:37 48° 71° (ENE) 11:03:47 145.935-145.965
DOVE 4 23 May 10:56:06 11:01:01 40° 293° (WNW) 11:05:43 437.250
BUGSAT 1 23 May 10:58:57 11:02:45 36° 68° (ENE) 11:06:37 437.445
CINEMA 3 23 May 11:04:56 11:09:44 56° 288° (WNW) 11:14:19 145.822/145.860
AAUSAT CUBESAT 2 23 May 11:07:58 11:11:52 39° 290° (WNW) 11:15:43 437.432
ZACube-1 23 May 11:08:07 11:12:30 59° 100° (E) 11:16:46 437.345
GOMX 1 23 May 11:13:14 11:17:34 24° 299° (WNW) 11:21:42 467.674
UKube-1 23 May 11:18:55 11:22:55 35° 97° (E) 11:26:55 .
VELOX 1 23 May 11:19:39 11:23:02 21° 91° (E) 11:26:29 145.980
TIGRISAT 23 May 11:20:04 11:24:40 52° 261° (W) 11:29:15 435.000
DX 1 23 May 11:21:21 11:25:29 39° 98° (E) 11:29:38 434.975-435.025
NANOSAT C BR1 23 May 11:28:16 11:32:33 81° 259° (W) 11:36:52 145.865
Oscar 11 23 May 11:30:29 11:34:41 50° 289° (WNW) 11:38:50 145.826/435.025
CUBEBUG 1 23 May 11:30:36 11:33:05 15° 88° (E) 11:35:44 437.445
QB50P2 23 May 11:33:09 11:37:26 71° 257° (WSW) 11:41:47 145.880/145.840
CANX-2 23 May 11:35:38 11:37:58 14° 300° (WNW) 11:40:09 2200.000
HUMSAT D 23 May 11:36:30 11:40:39 55° 100° (E) 11:44:43 437.325/437.525
UNISAT 6 23 May 11:39:05 11:43:23 34° 265° (W) 11:47:38 437.425
Cosmos 2504 23 May 11:39:24 11:47:49 76° 282° (WNW) 11:55:40 435.465 / 435.565
CUTE 1.7 + AOD 2 23 May 11:39:52 11:42:10 14° 300° (WNW) 11:44:20 437.475
UWE-3 23 May 11:44:22 11:48:44 50° 289° (WNW) 11:52:57 435.000/436.395/437.385
YUBILEINY 23 May 11:46:01 11:50:16 14° 316° (NW) 11:54:04 435.215
PCSat 23 May 11:46:26 11:51:41 50° 243° (WSW) 11:56:53 145.827
POPSAT HIP 1 23 May 11:46:39 11:50:51 53° 260° (W) 11:55:05 437.405
AISAT 23 May 11:49:10 11:53:27 41° 98° (E) 11:57:43 437.250
Oscar 19 23 May 11:49:16 11:51:03 12° 53° (NE) 11:53:04 437.125/150
DUCHIFAT 1 23 May 11:52:09 11:56:17 47° 261° (W) 12:00:27 145.980
50 SAT 23 May 11:55:36 11:59:26 50° 100° (E) 12:03:12 437.505
DELFI C3 23 May 12:03:20 12:06:51 29° 293° (WNW) 12:10:19 145.870
SO-50 23 May 12:04:02 12:08:37 36° 38° (NE) 12:13:12 436.795
FUNcube-1 23 May 12:05:49 12:09:57 39° 291° (WNW) 12:13:57 145.935
RS-15 23 May 12:08:35 12:19:26 62° 320° (NW) 12:30:40 29.354- 29.394
HO-68 23 May 12:10:20 12:15:55 25° 308° (NW) 12:21:20 435.675
GONETS M04 23 May 12:18:09 12:22:42 16° 73° (ENE) 12:27:46
ANTELSAT 23 May 12:24:33 12:27:08 14° 274° (W) 12:29:31 437.575/2403.000
SPROUT 23 May 12:25:24 12:28:01 16° 88° (E) 12:30:47 437.525
CUBEBUG 2 23 May 12:25:27 12:28:48 20° 299° (WNW) 12:31:57 437.445
CUSAT 1 23 May 12:27:52 12:32:30 19° 77° (ENE) 12:37:51 437.405
POLYITAN 1 23 May 12:32:14 12:35:26 20° 269° (W) 12:38:34 437.675
QB50P1 23 May 12:32:35 12:35:47 20° 270° (W) 12:38:52 145.935-145.965
BUGSAT 1 23 May 12:34:52 12:38:19 25° 267° (W) 12:41:46 437.445
ESTCUBE 1 23 May 12:41:56 12:46:29 81° 103° (ESE) 12:51:01 437.505/2401.250
ZACube-1 23 May 12:45:23 12:48:28 18° 299° (WNW) 12:51:22 437.345
AO-7 23 May 12:46:25 12:48:09 11° 27° (NNE) 12:50:11 29.400- 29.500
UKube-1 23 May 12:55:12 12:58:58 28° 295° (WNW) 13:02:40 .
VELOX 1 23 May 12:55:31 12:59:52 48° 290° (WNW) 13:04:10 145.980
DX 1 23 May 12:57:54 13:01:35 26° 296° (WNW) 13:05:11 434.975-435.025
TISAT 1 23 May 13:04:08 13:07:50 28° 94° (E) 13:11:32 437.305
CUBEBUG 1 23 May 13:05:32 13:09:58 68° 287° (WNW) 13:14:23 437.445
DANDE 23 May 13:09:41 13:15:25 28° 82° (E) 13:22:10 436.750
HUMSAT D 23 May 13:13:08 13:16:03 18° 298° (WNW) 13:18:49 437.325/437.525
Oscar 19 23 May 13:24:23 13:29:31 64° 71° (ENE) 13:34:42 437.125/150
AISAT 23 May 13:26:06 13:29:52 26° 296° (WNW) 13:33:32 437.250
ITAMSAT 1 23 May 13:30:31 13:34:44 26° 62° (ENE) 13:39:02 435.822/435.867
50 SAT 23 May 13:31:12 13:33:49 17° 297° (WNW) 13:36:19 437.505
ITUPSAT 1 23 May 13:37:04 13:38:35 12° 85° (E) 13:40:22 437.325
Cosmos 2504 23 May 13:37:09 13:42:45 19° 305° (NW) 13:47:50 435.465 / 435.565
Gurwin Techsat 1B 23 May 13:44:06 13:48:42 32° 64° (ENE) 13:53:23 435.225
SO-50 23 May 13:44:33 13:49:20 47° 238° (WSW) 13:54:02 436.795
BEESAT 23 May 13:46:34 13:49:09 15° 87° (E) 13:51:56 436.000
SWISSCUBE 23 May 13:53:52 13:57:10 19° 90° (E) 14:00:36 437.505
SPROUT 23 May 14:00:15 14:04:34 61° 287° (WNW) 14:08:49 437.525
CUSAT 1 23 May 14:06:43 14:13:53 77° 98° (E) 14:22:13 437.405
GONETS M04 23 May 14:09:19 14:18:03 70° 94° (E) 14:26:52
ESTCUBE 1 23 May 14:20:12 14:22:48 15° 301° (WNW) 14:25:16 437.505/2401.250
RS-15 23 May 14:24:31 14:34:32 36° 352° (N) 14:44:55 29.354- 29.394
Cosmos 2499 23 May 14:30:46 14:35:49 19° 80° (E) 14:40:59 435.465 / 435.565
AO-7 23 May 14:31:28 14:38:26 32° 52° (NE) 14:45:35 29.400- 29.500
JAS-2 23 May 14:39:23 14:44:28 25° 61° (ENE) 14:49:15 435.910
TISAT 1 23 May 14:39:45 14:43:38 33° 293° (WNW) 14:47:28 437.305
CUBEBUG 1 23 May 14:44:56 14:45:34 10° 305° (NW) 14:45:59 437.445
HORYU 2 23 May 14:49:07 14:52:30 22° 63° (ENE) 14:55:59 437.375
DANDE 23 May 14:50:48 14:57:50 75° 285° (WNW) 15:06:19 436.750
KKS-1 23 May 14:55:49 14:57:53 13° 86° (E) 15:00:10 437.445
Oscar 19 23 May 15:05:31 15:09:23 20° 271° (W) 15:13:07 437.125/150
ITAMSAT 1 23 May 15:08:56 15:13:59 51° 260° (W) 15:19:04 435.822/435.867
ITUPSAT 1 23 May 15:12:30 15:17:19 86° 105° (ESE) 15:22:07 437.325
BEESAT 23 May 15:22:51 15:27:39 76° 286° (WNW) 15:32:25 436.000
Gurwin Techsat 1B 23 May 15:23:30 15:28:34 43° 263° (W) 15:33:38 435.225
SWISSCUBE 23 May 15:30:46 15:35:28 60° 289° (WNW) 15:40:11 437.505
CUSAT 1 23 May 15:50:59 15:57:33 30° 302° (WNW) 16:04:37 437.405
GONETS M04 23 May 16:07:57 16:15:46 32° 298° (WNW) 16:23:26
STARS 23 May 16:08:19 16:12:33 42° 98° (E) 16:16:47 437.465
Cosmos 2499 23 May 16:19:52 16:28:06 86° 98° (E) 16:35:43 435.465 / 435.565
AO-7 23 May 16:22:21 16:30:39 76° 253° (WSW) 16:39:02 29.400- 29.500
JAS-2 23 May 16:22:26 16:29:15 71° 257° (WSW) 16:35:15 435.910
HORYU 2 23 May 16:24:29 16:28:52 50° 260° (W) 16:33:15 437.375
KKS-1 23 May 16:30:39 16:35:10 77° 286° (WNW) 16:39:38 437.445
DANDE 23 May 16:37:10 16:42:51 21° 310° (NW) 16:48:51 436.750
RS-15 23 May 16:39:48 16:50:28 44° 25° (NNE) 17:01:40 29.354- 29.394
ITUPSAT 1 23 May 16:51:49 16:54:37 15° 303° (WNW) 16:57:17 437.325
CUTE-I 23 May 16:54:46 16:57:56 17° 56° (NE) 17:01:17 437.470
O/OREOS (USA 219) 23 May 17:00:39 17:05:03 55° 111° (ESE) 17:09:28 437.305
BEESAT 23 May 17:02:42 17:04:45 12° 305° (NW) 17:06:38 436.000
SWISSCUBE 23 May 17:12:02 17:12:28 10° 307° (NW) 17:12:41 437.505
Cubesat XI-IV 23 May 17:13:08 17:17:07 23° 60° (ENE) 17:21:15 437.490
MOZHAYETS 4 23 May 17:31:28 17:35:50 43° 98° (E) 17:40:11
STARS 23 May 17:45:10 17:48:50 25° 296° (WNW) 17:52:23 437.465
YUBILEINY 23 May 17:50:54 17:57:49 26° 58° (ENE) 18:04:56 435.215
Cosmos 2491 23 May 18:06:22 18:07:02 10° 68° (ENE) 18:08:24 435.465 / 435.565
KKS-1 23 May 18:09:26 18:11:06 12° 304° (NW) 18:12:35 437.445
JAS-2 23 May 18:12:28 18:15:23 13° 276° (W) 18:17:48 435.910
Cosmos 2499 23 May 18:16:02 18:22:17 23° 300° (WNW) 18:28:01 435.465 / 435.565
AO-7 23 May 18:19:39 18:25:04 18° 276° (W) 18:30:05 29.400- 29.500
CUTE-I 23 May 18:32:02 18:37:21 88° 83° (E) 18:42:44 437.470
O/OREOS (USA 219) 23 May 18:41:14 18:44:50 22° 312° (NW) 18:48:22 437.305
STRAND 1 23 May 18:47:41 18:49:07 11° 84° (E) 18:50:51 437.568
BRITE-PL 23 May 18:48:17 18:51:25 17° 56° (NE) 18:54:51 437.365/2234.400
PRISM 23 May 18:51:18 18:52:08 11° 86° (E) 18:53:12 437.425
Cubesat XI-IV 23 May 18:51:33 18:56:49 65° 258° (WSW) 19:02:09 437.490
RS-15 23 May 18:52:48 19:04:24 88° 231° (SW) 19:16:30 29.354- 29.394
CUBESAT XI-V 23 May 18:59:30 19:03:40 31° 94° (E) 19:07:53 437.345
HO-68 23 May 19:08:27 19:13:53 25° 52° (NE) 19:19:28 435.675
MOZHAYETS 4 23 May 19:09:07 19:12:52 25° 295° (WNW) 19:16:33
GOMX 1 23 May 19:10:10 19:13:26 17° 57° (ENE) 19:16:56 467.674
CANX-2 23 May 19:22:12 19:23:35 12° 58° (ENE) 19:25:10 2200.000
BEESAT 3 23 May 19:22:17 19:25:58 34° 119° (ESE) 19:29:44 437.485
CUTE 1.7 + AOD 2 23 May 19:26:20 19:27:44 12° 58° (ENE) 19:29:19 437.475
AIST 2 23 May 19:33:44 19:35:30 13° 111° (ESE) 19:37:28 435.215
Cosmos 2504 23 May 19:37:33 19:38:52 11° 45° (NE) 19:40:36 435.465 / 435.565
YUBILEINY 23 May 19:47:10 19:55:56 84° 262° (W) 20:04:38 435.215
SEEDS 23 May 19:53:25 19:56:09 17° 62° (ENE) 19:58:59 437.485
Cosmos 2491 23 May 19:53:33 20:01:53 51° 89° (E) 20:10:21 435.465 / 435.565
BEESAT 2 23 May 20:05:24 20:09:31 71° 126° (SE) 20:13:40 435.950
COMPASS 1 23 May 20:12:16 20:15:24 21° 64° (ENE) 20:18:36 437.405
CUTE-I 23 May 20:15:19 20:18:18 14° 275° (W) 20:21:02 437.470
CUBEBUG 2 23 May 20:16:11 20:18:01 12° 57° (ENE) 20:20:04 437.445
PRISM 23 May 20:24:05 20:28:15 84° 287° (WNW) 20:32:24 437.425
BRITE-PL 23 May 20:24:05 20:29:09 89° 77° (ENE) 20:34:39 437.365/2234.400
STRAND 1 23 May 20:24:08 20:29:19 78° 104° (ESE) 20:34:28 437.568
DOVE 4 23 May 20:27:06 20:31:58 47° 69° (ENE) 20:37:04 437.250
AAUSAT CUBESAT 2 23 May 20:27:20 20:30:44 25° 66° (ENE) 20:34:12 437.432
CINEMA 3 23 May 20:33:20 20:37:36 30° 65° (ENE) 20:42:01 145.822/145.860
ZACube-1 23 May 20:34:40 20:36:09 12° 57° (ENE) 20:37:49 437.345
CUBESAT XI-V 23 May 20:36:53 20:41:09 35° 292° (WNW) 20:45:22 437.345
GOMX 1 23 May 20:45:43 20:50:49 88° 253° (WSW) 20:56:17 467.674
Oscar 11 23 May 20:53:31 20:57:00 24° 65° (ENE) 21:00:33 145.826/435.025
HO-68 23 May 20:53:40 21:00:53 88° 252° (WSW) 21:08:08 435.675
CANX-2 23 May 20:54:36 20:58:54 85° 72° (ENE) 21:03:11 2200.000
M-CUBED/EXP-1 PRIME 23 May 20:55:18 20:58:41 83° 109° (ESE) 21:01:59 437.505
CUTE 1.7 + AOD 2 23 May 20:58:45 21:03:02 85° 77° (ENE) 21:07:19 437.475
BEESAT 3 23 May 21:00:09 21:03:57 35° 319° (NW) 21:07:46 437.485
RS-15 23 May 21:06:10 21:15:38 29° 255° (WSW) 21:24:58 29.354- 29.394
AUBIESAT-1 23 May 21:07:04 21:10:27 81° 293° (WNW) 21:13:44 437.475
UWE-3 23 May 21:08:58 21:12:54 28° 65° (ENE) 21:16:54 435.000/436.395/437.385
AIST 2 23 May 21:09:13 21:13:29 89° 287° (WNW) 21:17:49 435.215
AIST 1 23 May 21:12:28 21:16:21 36° 92° (E) 21:20:18
DELFI C3 23 May 21:19:17 21:22:48 30° 68° (ENE) 21:26:21 145.870
SEEDS 23 May 21:27:23 21:31:34 59° 260° (W) 21:35:46 437.485
Cosmos 2504 23 May 21:27:38 21:34:42 49° 72° (ENE) 21:41:38 435.465 / 435.565
FUNcube-1 23 May 21:28:52 21:32:56 32° 67° (ENE) 21:37:03 145.935
BEESAT 2 23 May 21:44:45 21:48:02 22° 326° (NNW) 21:51:18 435.950
YUBILEINY 23 May 21:45:35 21:51:35 20° 283° (WNW) 21:57:11 435.215
COMPASS 1 23 May 21:46:48 21:50:50 45° 262° (W) 21:54:52 437.405
CUBEBUG 2 23 May 21:49:12 21:53:58 75° 75° (ENE) 21:58:45 437.445
Cosmos 2491 23 May 21:50:40 21:59:00 44° 292° (WNW) 22:07:20 435.465 / 435.565
PRISM 23 May 22:01:46 22:03:05 11° 303° (WNW) 22:04:13 437.425
AAUSAT CUBESAT 2 23 May 22:02:21 22:06:14 36° 264° (W) 22:10:05 437.432
STRAND 1 23 May 22:04:27 22:07:59 19° 302° (WNW) 22:11:24 437.568
DOVE 4 23 May 22:05:35 22:09:57 28° 269° (W) 22:14:25 437.250
BRITE-PL 23 May 22:05:47 22:08:38 14° 278° (W) 22:11:20 437.365/2234.400
ZACube-1 23 May 22:07:11 22:11:47 75° 74° (ENE) 22:16:24 437.345
CINEMA 3 23 May 22:09:55 22:14:39 42° 264° (W) 22:19:27 145.822/145.860
ESTCUBE 1 23 May 22:10:32 22:13:15 16° 60° (ENE) 22:16:07 437.505/2401.250
UKube-1 23 May 22:17:12 22:21:21 48° 70° (ENE) 22:25:34 .
DX 1 23 May 22:20:23 22:24:38 56° 71° (ENE) 22:28:57 434.975-435.025
VELOX 1 23 May 22:20:46 22:24:37 30° 66° (ENE) 22:28:32 145.980
GONETS M04 23 May 22:21:06 22:23:08 11° 39° (NE) 22:25:41
GOMX 1 23 May 22:27:11 22:29:54 14° 278° (W) 22:32:26 467.674
Oscar 11 23 May 22:28:54 22:33:00 40° 263° (W) 22:37:07 145.826/435.025
CUBEBUG 1 23 May 22:30:19 22:33:31 21° 63° (ENE) 22:36:50 437.445
HUMSAT D 23 May 22:31:31 22:35:48 64° 73° (ENE) 22:40:05 437.325/437.525
CANX-2 23 May 22:34:11 22:35:31 11° 275° (W) 22:36:36 2200.000
ANTELSAT 23 May 22:35:26 22:37:08 12° 85° (E) 22:39:03 437.575/2403.000
CUTE 1.7 + AOD 2 23 May 22:38:21 22:39:38 11° 275° (W) 22:40:42 437.475
BEESAT 3 23 May 22:41:40 22:43:07 11° 341° (NNW) 22:44:29 437.485
50 SAT 23 May 22:43:38 22:47:32 50° 71° (ENE) 22:51:25 437.505
HO-68 23 May 22:44:42 22:49:44 19° 274° (W) 22:54:29 435.675
UWE-3 23 May 22:44:49 22:49:16 41° 263° (W) 22:53:43 435.000/436.395/437.385
AIST 2 23 May 22:49:28 22:52:41 20° 329° (NNW) 22:55:51 435.215
AISAT 23 May 22:50:25 22:54:47 59° 72° (ENE) 22:59:13 437.250
AIST 1 23 May 22:50:37 22:54:09 24° 292° (WNW) 22:57:38
DELFI C3 23 May 22:54:24 22:57:55 28° 266° (W) 23:01:24 145.870
CUSAT 1 23 May 23:00:10 23:05:41 21° 50° (NE) 23:10:50 437.405
FUNcube-1 23 May 23:05:04 23:09:15 33° 265° (W) 23:13:23 145.935
TIGRISAT 23 May 23:08:34 23:12:14 25° 92° (E) 23:15:53 435.000
NANOSAT C BR1 23 May 23:11:08 23:13:04 13° 87° (E) 23:15:09 145.865
QB50P2 23 May 23:16:01 23:18:27 15° 88° (E) 23:21:03 145.880/145.840
Cosmos 2504 23 May 23:21:24 23:27:55 36° 274° (W) 23:34:13 435.465 / 435.565
SPROUT 23 May 23:23:10 23:26:22 21° 63° (ENE) 23:29:40 437.525
UNISAT 6 23 May 23:27:05 23:31:15 38° 97° (E) 23:35:21 437.425
CUBEBUG 2 23 May 23:28:23 23:31:16 15° 274° (W) 23:33:58 437.445
POPSAT HIP 1 23 May 23:28:44 23:31:51 20° 91° (E) 23:35:03 437.405
DUCHIFAT 1 23 May 23:33:35 23:36:50 21° 91° (E) 23:40:10 145.980
ESTCUBE 1 23 May 23:45:11 23:49:39 71° 258° (WSW) 23:54:09 437.505/2401.250
ZACube-1 23 May 23:46:06 23:48:44 14° 273° (W) 23:51:10 437.345
DANDE 23 May 23:46:09 23:53:29 33° 59° (ENE) 00:00:00 436.750
UKube-1 23 May 23:54:34 23:57:48 20° 269° (W) 00:00:57 .
Cosmos 2491 23 May 23:56:22 23:59:07 11° 321° (NW) 00:01:22 435.465 / 435.565
VELOX 1 23 May 23:57:05 00:01:08 33° 264° (W) 00:05:10 145.980
DX 1 23 May 23:58:17 00:01:18 17° 270° (W) 00:04:11 434.975-435.025
TISAT 1 23 May 23:59:48 00:03:38 34° 68° (ENE) 00:07:32 437.305
CUBEBUG 1 24 May 00:05:20 00:09:34 50° 260° (W) 00:13:53 437.445
HUMSAT D 24 May 00:09:24 00:12:02 15° 272° (W) 00:14:29 437.325/437.525
